Highspire, PA

5:59 PM EDT on August 25, 2016 (GMT -0400)
Harrisburg International

Weather History for KMDT - January, 2013

Change the Weather History Date:

Saturday, January 5, 2013

  Actual Average Record
Temperature  
Mean Temperature 32 °F 30 °F  
Max Temperature 38 °F 37 °F 64 °F (1950)
Min Temperature 26 °F 23 °F -5 °F (1904)
Degree Days  
Heating Degree Days 33 35  
Month to date heating degree days 168 172  
Since 1 July heating degree days 2040 2173  
Cooling Degree Days 0 0  
Month to date cooling degree days 0 0  
Year to date cooling degree days 0 0  
Moisture  
Dew Point 21 °F    
Average Humidity 67    
Maximum Humidity 81    
Minimum Humidity 52    
Precipitation  
Precipitation 0.00 in 0.09 in 1.30 in (1949)
Month to date precipitation 0.00 0.45  
Year to date precipitation 0.00 0.45  
Snow  
Snow 0.00 in 0.20 in 3.50 in (2001)
Month to date snowfall 0.0 1.1  
Since 1 July snowfall 7.5 6.8  
Snow Depth 0.00 in    
Sea Level Pressure  
Sea Level Pressure 30.26 in    
Wind  
Wind Speed 7 mph (NW)    
Max Wind Speed 21 mph    
Max Gust Speed 25 mph    
Visibility 9 miles    
Events      
T = Trace of Precipitation, MM = Missing Value Source: NWS Daily Summary

Daily Weather History Graph

Daily Weather History Graph

Search for Another Location

Airport or City:

Trip Planner

Search our weather history database for the weather conditions in past years. The results will help you decide how hot, cold, wet, or windy it might be!

Date:

Astronomy

Jan. 05, 2013 Rise Set
Actual Time 7:29 AM EST 4:55 PM EST
Civil Twilight 6:59 AM EST 5:26 PM EST
Nautical Twilight 6:25 AM EST 6:00 PM EST
Astronomical Twilight 5:52 AM EST 6:32 PM EST
Moon 12:33 AM EST (1/5) 11:44 AM EST (1/5)
Length of Visible Light 10h 26m
Length of Day
9h 26m
Last Quarter, 44% of the Moon is Illuminated
Jan 5
Last Quarter
Jan 11
New
Jan 18
First Quarter
Jan 26
Full
Feb 3
Last Quarter

Hourly Weather History & Observations

Time (EST) Temp. Windchill Dew Point Humidity Pressure Visibility Wind Dir Wind Speed Gust Speed Precip Events Conditions
12:56 AM 34.0 °F 25.0 °F 21.0 °F 59% 30.11 in 10.0 mi WNW 12.7 mph - N/A   Clear
1:56 AM 30.0 °F 23.2 °F 19.0 °F 64% 30.13 in 10.0 mi NW 6.9 mph - N/A   Clear
2:56 AM 33.1 °F 25.5 °F 19.9 °F 59% 30.17 in 10.0 mi West 9.2 mph - N/A   Clear
3:56 AM 30.9 °F 22.8 °F 19.9 °F 64% 30.20 in 10.0 mi WNW 9.2 mph - N/A   Clear
4:56 AM 30.0 °F 24.1 °F 19.0 °F 64% 30.24 in 10.0 mi WNW 5.8 mph - N/A   Partly Cloudy
5:56 AM 28.9 °F 19.8 °F 19.0 °F 67% 30.27 in 10.0 mi NW 10.4 mph - N/A   Partly Cloudy
6:56 AM 30.0 °F 21.1 °F 19.0 °F 64% 30.29 in 10.0 mi NW 10.4 mph - N/A   Partly Cloudy
7:56 AM 28.4 °F 17.0 °F 19.4 °F 69% 30.30 in 10.0 mi NW 15.0 mph - N/A   Scattered Clouds
8:56 AM 30.2 °F 20.2 °F 19.4 °F 64% 30.32 in 10.0 mi NW 12.7 mph - N/A   Scattered Clouds
9:56 AM 33.1 °F 22.2 °F 19.9 °F 59% 30.37 in 10.0 mi NW 17.3 mph 25.3 mph N/A   Partly Cloudy
10:56 AM 34.0 °F 26.0 °F 21.0 °F 59% 30.36 in 10.0 mi NNW 10.4 mph - N/A   Partly Cloudy
11:56 AM 35.1 °F 28.6 °F 19.9 °F 54% 30.35 in 10.0 mi NNW 8.1 mph - N/A   Partly Cloudy
12:56 PM 36.0 °F 30.3 °F 21.9 °F 57% 30.32 in 10.0 mi WNW 6.9 mph - N/A   Scattered Clouds
1:56 PM 37.9 °F 31.5 °F 21.9 °F 53% 30.30 in 10.0 mi NW 9.2 mph - N/A   Scattered Clouds
2:56 PM 37.9 °F 34.4 °F 21.0 °F 51% 30.29 in 10.0 mi West 4.6 mph - N/A   Scattered Clouds
3:56 PM 36.0 °F 31.1 °F 21.9 °F 57% 30.29 in 10.0 mi NW 5.8 mph - N/A   Mostly Cloudy
4:56 PM 33.1 °F - 27.0 °F 78% 30.28 in 10.0 mi Calm Calm - N/A   Mostly Cloudy
5:56 PM 28.9 °F - 21.9 °F 75% 30.29 in 10.0 mi Calm Calm - N/A   Scattered Clouds
6:56 PM 28.4 °F - 21.2 °F 74% 30.26 in 10.0 mi Calm Calm - N/A   Scattered Clouds
7:56 PM 27.0 °F - 21.0 °F 78% 30.26 in 9.0 mi Calm Calm - N/A   Scattered Clouds
8:56 PM 28.9 °F 25.2 °F 21.9 °F 75% 30.24 in 7.0 mi East 3.5 mph - N/A   Mostly Cloudy
9:56 PM 30.0 °F - 23.0 °F 75% 30.23 in 7.0 mi Calm Calm - N/A   Mostly Cloudy
10:56 PM 30.9 °F 25.2 °F 24.1 °F 76% 30.23 in 7.0 mi ESE 5.8 mph - N/A   Overcast
11:56 PM 32.0 °F - 24.1 °F 73% 30.21 in 6.0 mi Calm Calm - N/A   Haze